Date String (YYYY-MM-DD hh:mm:ss) UTC,Instrument flags,Ambient pressure (hPa),Sample flow (lpm),Bypass flow (lpm),Sample temperature (°C),Ambient temperature (°C),ASC tube jacket temperature (°C),LED temperature (°C),Box temperature (°C),Sample RH (%),Span deviation,Mass concentration (μg/m³),Mass concentration (μg/m³),Mass concentration (μg/m³)
DateTimeUTC,F1_M11,P_M11,Q1_M11,Q2_M11,T1_M11,T2_M11,T3_M11,T4_M11,T5_M11,U1_M11,ZSPAN_M11,X0_M11,X2_M11,X1_M11
2022-12-05 09:00:00,,0816.5,4.99,0.00,23.6,22.3,00.0,32.6,25.5,13.5,0000.0,0003.28,0002.66,0002.46
2022-12-05 09:01:00,,0816.6,5.00,0.00,23.6,22.2,00.0,32.6,25.5,13.5,0000.0,0003.34,0002.69,0002.48
2022-12-05 09:02:00,,0816.5,5.01,0.00,23.6,22.2,00.0,32.6,25.5,13.6,0000.0,0003.36,0002.70,0002.49
2022-12-05 09:03:00,,0816.7,5.01,0.00,23.6,22.2,00.0,32.6,25.5,13.7,0000.0,0003.30,0002.68,0002.48
2022-12-05 09:04:00,,0816.4,4.99,0.00,23.6,22.3,00.0,32.6,25.5,13.5,0000.0,0003.08,0002.53,0002.38
2022-12-05 09:05:00,,0816.4,4.99,0.00,23.6,22.3,00.0,32.6,25.5,13.3,0000.0,0002.90,0002.38,0002.25
2022-12-05 09:06:00,,0816.4,5.01,0.00,23.6,22.3,00.0,32.6,25.5,13.4,0000.0,0002.79,0002.27,0002.14
2022-12-05 09:07:00,,0816.4,5.01,0.00,23.6,22.2,00.0,32.6,25.5,13.4,0000.0,0002.59,0002.19,0002.07
2022-12-05 09:08:00,,0816.5,5.00,0.00,23.6,22.2,00.0,32.6,25.5,13.3,0000.0,0003.08,0002.17,0002.06
2022-12-05 09:09:00,,0816.5,4.99,0.00,23.6,22.2,00.0,32.6,25.5,13.2,0000.0,0003.69,0002.15,0002.04
2022-12-05 09:10:00,,0816.5,5.01,0.00,23.6,22.1,00.0,32.6,25.5,13.3,0000.0,0003.82,0002.17,0002.03
2022-12-05 09:11:00,,0816.6,5.00,0.00,23.6,22.1,00.0,32.6,25.4,13.4,0000.0,0003.81,0002.17,0002.03
2022-12-05 09:12:00,,0816.9,4.99,0.00,23.6,22.1,00.0,32.6,25.4,13.4,0000.0,0003.81,0002.17,0002.04
2022-12-05 09:13:00,,0816.8,5.01,0.00,23.6,22.1,00.0,32.5,25.4,13.8,0000.0,0003.81,0002.18,0002.06
2022-12-05 09:14:00,,0816.6,5.01,0.00,23.5,22.0,00.0,32.6,25.3,13.8,0000.0,0003.83,0002.22,0002.10
2022-12-05 09:15:00,,0816.3,5.00,0.00,23.5,22.0,00.0,32.5,25.3,13.3,0000.0,0003.82,0002.21,0002.10
2022-12-05 09:16:00,,0816.5,4.99,0.00,23.5,22.0,00.0,32.5,25.3,13.3,0000.0,0003.81,0002.21,0002.10
2022-12-05 09:17:00,,0816.4,5.00,0.00,23.5,22.0,00.0,32.5,25.3,13.5,0000.0,0003.82,0002.23,0002.13
2022-12-05 09:18:00,,0816.5,5.00,0.00,23.5,22.1,00.0,32.5,25.3,13.3,0000.0,0003.83,0002.24,0002.14
2022-12-05 09:19:00,,0816.5,4.99,0.00,23.5,22.0,00.0,32.5,25.3,13.2,0000.0,0003.49,0002.23,0002.12
2022-12-05 09:20:00,,0816.5,5.00,0.00,23.5,21.9,00.0,32.5,25.3,13.2,0000.0,0002.63,0002.20,0002.09
2022-12-05 09:21:00,,0816.4,5.01,0.00,23.5,21.9,00.0,32.5,25.2,13.2,0000.0,0002.48,0002.16,0002.06
2022-12-05 09:22:00,,0816.4,4.99,0.00,23.4,21.8,00.0,32.5,25.2,13.4,0000.0,0002.45,0002.13,0002.04
2022-12-05 09:23:00,,0816.4,4.99,0.00,23.4,21.8,00.0,32.5,25.2,13.8,0000.0,0002.43,0002.15,0002.06
2022-12-05 09:24:00,,0816.4,5.00,0.00,23.4,21.8,00.0,32.5,25.2,13.7,0000.0,0002.47,0002.18,0002.08
2022-12-05 09:25:00,,0816.3,5.00,0.00,23.4,21.7,00.0,32.5,25.1,13.4,0000.0,0002.43,0002.14,0002.04
2022-12-05 09:26:00,,0816.2,5.01,0.00,23.4,21.6,00.0,32.4,25.1,13.4,0000.0,0002.44,0002.15,0002.04
2022-12-05 09:27:00,,0816.4,5.01,0.00,23.3,21.6,00.0,32.4,25.1,13.3,0000.0,0002.43,0002.15,0002.04
2022-12-05 09:28:00,,0816.4,4.99,0.00,23.3,21.7,00.0,32.4,25.1,13.9,0000.0,0002.45,0002.17,0002.06
2022-12-05 09:29:00,,0816.4,4.99,0.00,23.3,21.8,00.0,32.4,25.1,14.0,0000.0,0002.51,0002.23,0002.11
2022-12-05 09:30:00,,0816.4,5.01,0.00,23.3,21.9,00.0,32.4,25.2,14.0,0000.0,0002.58,0002.32,0002.20
2022-12-05 09:31:00,,0816.4,5.01,0.00,23.4,22.0,00.0,32.4,25.2,14.0,0000.0,0002.66,0002.41,0002.30
2022-12-05 09:32:00,,0816.5,4.99,0.00,23.4,22.1,00.0,32.4,25.2,13.6,0000.0,0002.77,0002.49,0002.38
2022-12-05 09:33:00,,0816.2,5.00,0.00,23.4,22.1,00.0,32.4,25.3,13.1,0000.0,0002.81,0002.48,0002.38
2022-12-05 09:34:00,,0816.2,5.01,0.00,23.4,22.0,00.0,32.4,25.2,13.0,0000.0,0002.75,0002.42,0002.30
2022-12-05 09:35:00,,0816.6,5.00,0.00,23.4,22.0,00.0,32.4,25.2,13.1,0000.0,0002.71,0002.36,0002.23
2022-12-05 09:36:00,,0816.5,4.99,0.00,23.4,21.9,00.0,32.4,25.2,13.6,0000.0,0002.85,0002.40,0002.23
2022-12-05 09:37:00,,0816.5,4.99,0.00,23.4,21.9,00.0,32.4,25.2,13.7,0000.0,0002.89,0002.41,0002.24
2022-12-05 09:38:00,,0816.6,5.02,0.00,23.4,21.8,00.0,32.4,25.2,13.8,0000.0,0002.95,0002.46,0002.30
2022-12-05 09:39:00,,0816.5,4.98,0.00,23.3,21.7,00.0,32.4,25.1,13.9,0000.0,0002.99,0002.48,0002.31
2022-12-05 09:40:00,,0816.4,5.02,0.00,23.3,21.7,00.0,32.3,25.1,13.5,0000.0,0003.21,0002.44,0002.26
2022-12-05 09:41:00,,0816.5,4.99,0.00,23.3,21.7,00.0,32.3,25.1,13.3,0000.0,0003.38,0002.37,0002.18
2022-12-05 09:42:00,,0816.4,4.99,0.00,23.3,21.8,00.0,32.3,25.1,13.6,0000.0,0004.15,0002.36,0002.13
2022-12-05 09:43:00,,0816.4,5.00,0.00,23.3,21.8,00.0,32.3,25.1,13.7,0000.0,0004.40,0002.36,0002.11
2022-12-05 09:44:00,,0816.4,5.01,0.00,23.3,21.8,00.0,32.3,25.1,13.6,0000.0,0004.40,0002.42,0002.17
2022-12-05 09:45:00,,0816.3,4.99,0.00,23.3,21.8,00.0,32.3,25.1,13.3,0000.0,0004.37,0002.41,0002.18
2022-12-05 09:46:00,,0816.5,4.98,0.00,23.3,21.7,00.0,32.3,25.1,13.7,0000.0,0004.40,0002.44,0002.21
2022-12-05 09:47:00,,0816.5,5.01,0.00,23.3,21.7,00.0,32.3,25.0,13.6,0000.0,0004.29,0002.43,0002.23
2022-12-05 09:48:00,,0816.4,5.00,0.00,23.3,21.6,00.0,32.3,25.0,13.3,0000.0,0004.20,0002.38,0002.20
2022-12-05 09:49:00,,0816.4,4.99,0.00,23.3,21.6,00.0,32.3,25.1,13.2,0000.0,0004.17,0002.32,0002.13
2022-12-05 09:50:00,,0816.6,4.99,0.00,23.3,21.7,00.0,32.3,25.1,13.5,0000.0,0004.12,0002.27,0002.07
2022-12-05 09:51:00,,0816.6,5.00,0.00,23.3,21.8,00.0,32.2,25.1,13.6,0000.0,0003.97,0002.25,0002.06
2022-12-05 09:52:00,,0816.4,5.01,0.00,23.3,21.9,00.0,32.2,25.1,13.6,0000.0,0003.77,0002.27,0002.09
2022-12-05 09:53:00,,0816.5,5.00,0.00,23.3,22.0,00.0,32.2,25.1,13.8,0000.0,0003.13,0002.29,0002.13
2022-12-05 09:54:00,,0816.5,5.00,0.00,23.3,22.0,00.0,32.3,25.2,13.7,0000.0,0002.75,0002.30,0002.16
2022-12-05 09:55:00,,0816.8,5.00,0.00,23.3,22.0,00.0,32.2,25.2,13.7,0000.0,0003.62,0002.30,0002.17
2022-12-05 09:56:00,,0816.9,5.00,0.00,23.3,22.1,00.0,32.3,25.2,13.9,0000.0,0004.15,0002.38,0002.24
2022-12-05 09:57:00,,0816.5,5.00,0.00,23.4,22.1,00.0,32.3,25.2,13.9,0000.0,0004.21,0002.45,0002.32
2022-12-05 09:58:00,,0816.5,4.99,0.00,23.4,22.1,00.0,32.3,25.2,13.8,0000.0,0004.25,0002.50,0002.37
2022-12-05 09:59:00,,0816.7,4.99,0.00,23.4,22.1,00.0,32.3,25.2,13.6,0000.0,0004.76,0002.59,0002.44
